Time,TemperatureF,DewpointF,PressureIn,WindDirection,WindDirectionDegrees,WindSpeedMPH,WindSpeedGustMPH,Humidity,HourlyPrecipIn,Conditions,Clouds,dailyrainin,SoftwareType,DateUTC
2013-03-27 00:10:00,37.9,21.0,30.39,WSW,238,6.0,-999.0,50,-99.99,,,0.00,weatherlink.com 1.10,2013-03-27 05:10:00,
2013-03-27 00:25:00,37.9,20.0,30.39,WSW,238,5.0,-999.0,49,-99.99,,,0.00,weatherlink.com 1.10,2013-03-27 05:25:00,
2013-03-27 00:40:00,37.8,20.0,30.39,WSW,238,3.0,-999.0,49,-99.99,,,0.00,weatherlink.com 1.10,2013-03-27 05:40:00,
2013-03-27 00:55:00,37.8,20.0,30.39,WSW,238,3.0,-999.0,49,-99.99,,,0.00,weatherlink.com 1.10,2013-03-27 05:55:00,
2013-03-27 01:10:00,37.9,20.0,30.38,WSW,238,0.0,-999.0,49,-99.99,,,0.00,weatherlink.com 1.10,2013-03-27 06:10:00,
2013-03-27 01:26:00,38.1,20.0,30.37,WSW,238,3.0,-999.0,48,-99.99,,,0.00,weatherlink.com 1.10,2013-03-27 06:26:00,
2013-03-27 01:40:00,38.4,20.0,30.37,WSW,238,0.0,-999.0,47,-99.99,,,0.00,weatherlink.com 1.10,2013-03-27 06:40:00,
2013-03-27 01:55:00,38.4,20.0,30.37,WSW,238,0.0,-999.0,48,-99.99,,,0.00,weatherlink.com 1.10,2013-03-27 06:55:00,
2013-03-27 02:10:00,38.5,20.0,30.37,WSW,238,1.0,-999.0,47,-99.99,,,0.00,weatherlink.com 1.10,2013-03-27 07:10:00,
2013-03-27 02:25:00,38.5,20.0,30.36,WSW,238,0.0,-999.0,47,-99.99,,,0.00,weatherlink.com 1.10,2013-03-27 07:25:00,
2013-03-27 02:40:00,38.2,19.0,30.36,WSW,238,0.0,-999.0,47,-99.99,,,0.00,weatherlink.com 1.10,2013-03-27 07:40:00,
2013-03-27 02:55:00,38.0,19.0,30.36,WSW,238,2.0,-999.0,46,-99.99,,,0.00,weatherlink.com 1.10,2013-03-27 07:55:00,
2013-03-27 03:10:00,38.1,19.0,30.36,WSW,237,2.0,-999.0,46,-99.99,,,0.00,weatherlink.com 1.10,2013-03-27 08:10:00,
2013-03-27 03:25:00,37.9,19.0,30.35,SW,236,2.0,-999.0,47,-99.99,,,0.00,weatherlink.com 1.10,2013-03-27 08:25:00,
2013-03-27 03:40:00,37.9,19.0,30.35,SW,234,4.0,-999.0,47,-99.99,,,0.00,weatherlink.com 1.10,2013-03-27 08:40:00,
2013-03-27 03:55:00,37.4,21.0,30.34,SW,231,7.0,-999.0,52,-99.99,,,0.00,weatherlink.com 1.10,2013-03-27 08:55:00,
2013-03-27 04:10:00,35.8,22.0,30.35,SW,221,2.0,-999.0,57,-99.99,,,0.00,weatherlink.com 1.10,2013-03-27 09:10:00,
2013-03-27 04:25:00,35.3,23.0,30.34,SW,219,3.0,-999.0,60,-99.99,,,0.00,weatherlink.com 1.10,2013-03-27 09:25:00,
2013-03-27 04:40:00,35.2,22.0,30.34,SSW,196,2.0,-999.0,59,-99.99,,,0.00,weatherlink.com 1.10,2013-03-27 09:40:00,
2013-03-27 04:55:00,35.5,22.0,30.34,SSW,192,4.0,-999.0,58,-99.99,,,0.00,weatherlink.com 1.10,2013-03-27 09:55:00,
2013-03-27 05:10:00,35.8,22.0,30.34,South,188,4.0,-999.0,57,-99.99,,,0.00,weatherlink.com 1.10,2013-03-27 10:10:00,
2013-03-27 05:25:00,36.3,21.0,30.34,South,181,4.0,-999.0,55,-99.99,,,0.00,weatherlink.com 1.10,2013-03-27 10:25:00,
2013-03-27 05:40:00,36.6,22.0,30.34,South,178,5.0,-999.0,55,-99.99,,,0.00,weatherlink.com 1.10,2013-03-27 10:40:00,
2013-03-27 05:55:00,36.4,21.0,30.34,South,182,6.0,-999.0,55,-99.99,,,0.00,weatherlink.com 1.10,2013-03-27 10:55:00,
2013-03-27 06:10:00,36.4,22.0,30.34,South,186,7.0,-999.0,57,-99.99,,,0.00,weatherlink.com 1.10,2013-03-27 11:10:00,
2013-03-27 06:25:00,36.5,22.0,30.35,South,185,3.0,-999.0,56,-99.99,,,0.00,weatherlink.com 1.10,2013-03-27 11:25:00,
2013-03-27 06:40:00,36.6,22.0,30.35,South,185,3.0,-999.0,55,-99.99,,,0.00,weatherlink.com 1.10,2013-03-27 11:40:00,
2013-03-27 06:55:00,36.9,22.0,30.35,South,182,7.0,-999.0,55,-99.99,,,0.00,weatherlink.com 1.10,2013-03-27 11:55:00,
2013-03-27 07:10:00,37.0,22.0,30.36,South,178,6.0,-999.0,55,-99.99,,,0.00,weatherlink.com 1.10,2013-03-27 12:10:00,
2013-03-27 07:25:00,36.9,22.0,30.35,South,184,4.0,-999.0,56,-99.99,,,0.00,weatherlink.com 1.10,2013-03-27 12:25:00,
2013-03-27 07:40:00,37.5,23.0,30.36,South,177,4.0,-999.0,55,-99.99,,,0.00,weatherlink.com 1.10,2013-03-27 12:40:00,
2013-03-27 07:55:00,38.2,23.0,30.36,South,175,9.0,-999.0,54,-99.99,,,0.00,weatherlink.com 1.10,2013-03-27 12:55:00,
2013-03-27 08:10:00,38.8,23.0,30.36,South,178,4.0,-999.0,54,-99.99,,,0.00,weatherlink.com 1.10,2013-03-27 13:10:00,
2013-03-27 08:25:00,39.0,23.0,30.37,South,184,9.0,-999.0,53,-99.99,,,0.00,weatherlink.com 1.10,2013-03-27 13:25:00,
2013-03-27 08:40:00,39.3,24.0,30.37,South,183,6.0,-999.0,54,-99.99,,,0.00,weatherlink.com 1.10,2013-03-27 13:40:00,
2013-03-27 08:55:00,39.2,24.0,30.38,South,186,2.0,-999.0,54,-99.99,,,0.00,weatherlink.com 1.10,2013-03-27 13:55:00,
2013-03-27 09:10:00,40.2,25.0,30.38,South,188,8.0,-999.0,54,-99.99,,,0.00,weatherlink.com 1.10,2013-03-27 14:10:00,
2013-03-27 09:25:00,40.2,25.0,30.39,South,191,2.0,-999.0,54,-99.99,,,0.00,weatherlink.com 1.10,2013-03-27 14:25:00,
2013-03-27 09:40:00,39.8,25.0,30.39,SSW,194,2.0,-999.0,55,-99.99,,,0.00,weatherlink.com 1.10,2013-03-27 14:40:00,
2013-03-27 09:55:00,39.9,25.0,30.39,SW,218,3.0,-999.0,55,-99.99,,,0.00,weatherlink.com 1.10,2013-03-27 14:55:00,
2013-03-27 10:10:00,41.4,25.0,30.39,SSW,212,0.0,-999.0,53,-99.99,,,0.00,weatherlink.com 1.10,2013-03-27 15:10:00,
2013-03-27 10:25:00,41.8,26.0,30.39,SW,214,1.0,-999.0,53,-99.99,,,0.00,weatherlink.com 1.10,2013-03-27 15:25:00,
2013-03-27 10:40:00,42.3,27.0,30.38,SW,222,0.0,-999.0,54,-99.99,,,0.00,weatherlink.com 1.10,2013-03-27 15:40:00,
2013-03-27 10:55:00,43.2,27.0,30.39,SW,223,6.0,-999.0,53,-99.99,,,0.00,weatherlink.com 1.10,2013-03-27 15:55:00,
2013-03-27 11:10:00,44.7,27.0,30.39,SW,235,1.0,-999.0,50,-99.99,,,0.00,weatherlink.com 1.10,2013-03-27 16:10:00,
2013-03-27 11:25:00,46.3,28.0,30.38,South,190,4.0,-999.0,50,-99.99,,,0.00,weatherlink.com 1.10,2013-03-27 16:25:00,
2013-03-27 11:40:00,45.5,28.0,30.38,SSW,213,6.0,-999.0,50,-99.99,,,0.00,weatherlink.com 1.10,2013-03-27 16:40:00,
2013-03-27 11:55:00,44.8,28.0,30.38,SSW,204,2.0,-999.0,53,-99.99,,,0.00,weatherlink.com 1.10,2013-03-27 16:55:00,
2013-03-27 12:10:00,46.5,30.0,30.37,SSW,205,2.0,-999.0,53,-99.99,,,0.00,weatherlink.com 1.10,2013-03-27 17:10:00,
2013-03-27 12:26:00,47.9,29.0,30.38,SSE,162,8.0,-999.0,48,-99.99,,,0.00,weatherlink.com 1.10,2013-03-27 17:26:00,
2013-03-27 12:40:00,48.2,29.0,30.37,South,190,0.0,-999.0,48,-99.99,,,0.00,weatherlink.com 1.10,2013-03-27 17:40:00,
2013-03-27 12:55:00,49.2,29.0,30.36,South,185,0.0,-999.0,46,-99.99,,,0.00,weatherlink.com 1.10,2013-03-27 17:55:00,
2013-03-27 13:10:00,50.8,29.0,30.35,South,191,3.0,-999.0,43,-99.99,,,0.00,weatherlink.com 1.10,2013-03-27 18:10:00,
2013-03-27 13:25:00,51.7,29.0,30.34,South,170,0.0,-999.0,42,-99.99,,,0.00,weatherlink.com 1.10,2013-03-27 18:25:00,
2013-03-27 13:40:00,51.5,26.0,30.34,South,171,0.0,-999.0,38,-99.99,,,0.00,weatherlink.com 1.10,2013-03-27 18:40:00,
2013-03-27 13:55:00,52.2,26.0,30.32,South,181,5.0,-999.0,37,-99.99,,,0.00,weatherlink.com 1.10,2013-03-27 18:55:00,
2013-03-27 14:10:00,53.1,27.0,30.32,South,182,4.0,-999.0,36,-99.99,,,0.00,weatherlink.com 1.10,2013-03-27 19:10:00,
2013-03-27 14:25:00,53.1,27.0,30.31,South,175,6.0,-999.0,36,-99.99,,,0.00,weatherlink.com 1.10,2013-03-27 19:25:00,
2013-03-27 14:40:00,53.7,28.0,30.30,South,178,4.0,-999.0,37,-99.99,,,0.00,weatherlink.com 1.10,2013-03-27 19:40:00,
2013-03-27 14:55:00,53.9,26.0,30.30,South,190,8.0,-999.0,34,-99.99,,,0.00,weatherlink.com 1.10,2013-03-27 19:55:00,
2013-03-27 15:10:00,53.8,27.0,30.29,SE,137,0.0,-999.0,35,-99.99,,,0.00,weatherlink.com 1.10,2013-03-27 20:10:00,
2013-03-27 15:25:00,53.4,27.0,30.29,SE,142,2.0,-999.0,36,-99.99,,,0.00,weatherlink.com 1.10,2013-03-27 20:25:00,
2013-03-27 15:40:00,53.9,27.0,30.28,South,184,7.0,-999.0,35,-99.99,,,0.00,weatherlink.com 1.10,2013-03-27 20:40:00,
2013-03-27 15:55:00,54.7,27.0,30.27,SE,144,8.0,-999.0,34,-99.99,,,0.00,weatherlink.com 1.10,2013-03-27 20:55:00,
2013-03-27 16:10:00,54.8,27.0,30.26,South,173,0.0,-999.0,34,-99.99,,,0.00,weatherlink.com 1.10,2013-03-27 21:10:00,
2013-03-27 16:25:00,55.2,26.0,30.26,South,169,1.0,-999.0,33,-99.99,,,0.00,weatherlink.com 1.10,2013-03-27 21:25:00,
2013-03-27 16:40:00,55.0,26.0,30.25,South,176,1.0,-999.0,33,-99.99,,,0.00,weatherlink.com 1.10,2013-03-27 21:40:00,
2013-03-27 16:55:00,54.8,27.0,30.25,ESE,111,0.0,-999.0,35,-99.99,,,0.00,weatherlink.com 1.10,2013-03-27 21:55:00,
2013-03-27 17:10:00,54.4,28.0,30.25,East,94,1.0,-999.0,36,-99.99,,,0.00,weatherlink.com 1.10,2013-03-27 22:10:00,
2013-03-27 17:25:00,53.5,28.0,30.25,SE,129,1.0,-999.0,37,-99.99,,,0.00,weatherlink.com 1.10,2013-03-27 22:25:00,
2013-03-27 17:40:00,53.7,28.0,30.25,SE,125,8.0,-999.0,38,-99.99,,,0.00,weatherlink.com 1.10,2013-03-27 22:40:00,
2013-03-27 17:55:00,53.6,28.0,30.24,SE,142,1.0,-999.0,37,-99.99,,,0.00,weatherlink.com 1.10,2013-03-27 22:55:00,
2013-03-27 18:10:00,53.5,28.0,30.23,SE,132,1.0,-999.0,37,-99.99,,,0.00,weatherlink.com 1.10,2013-03-27 23:10:00,
2013-03-27 18:25:00,53.3,27.0,30.23,SE,144,0.0,-999.0,36,-99.99,,,0.00,weatherlink.com 1.10,2013-03-27 23:25:00,
2013-03-27 18:40:00,52.9,27.0,30.23,SE,144,1.0,-999.0,37,-99.99,,,0.00,weatherlink.com 1.10,2013-03-27 23:40:00,
2013-03-27 18:55:00,52.6,27.0,30.23,SSE,159,1.0,-999.0,38,-99.99,,,0.00,weatherlink.com 1.10,2013-03-27 23:55:00,
2013-03-27 19:10:00,52.4,27.0,30.23,SSE,154,0.0,-999.0,38,-99.99,,,0.00,weatherlink.com 1.10,2013-03-28 00:10:00,
2013-03-27 19:25:00,52.4,27.0,30.23,SE,136,2.0,-999.0,38,-99.99,,,0.00,weatherlink.com 1.10,2013-03-28 00:25:00,
2013-03-27 19:40:00,52.1,28.0,30.22,SSE,159,5.0,-999.0,39,-99.99,,,0.00,weatherlink.com 1.10,2013-03-28 00:40:00,
2013-03-27 19:55:00,51.9,27.0,30.22,South,180,2.0,-999.0,38,-99.99,,,0.00,weatherlink.com 1.10,2013-03-28 00:55:00,
2013-03-27 20:10:00,51.7,27.0,30.23,South,179,5.0,-999.0,39,-99.99,,,0.00,weatherlink.com 1.10,2013-03-28 01:10:00,
2013-03-27 20:25:00,51.2,27.0,30.23,South,173,11.0,-999.0,39,-99.99,,,0.00,weatherlink.com 1.10,2013-03-28 01:25:00,
2013-03-27 20:40:00,51.1,27.0,30.25,South,180,13.0,-999.0,39,-99.99,,,0.00,weatherlink.com 1.10,2013-03-28 01:40:00,
2013-03-27 20:55:00,51.0,27.0,30.25,SSW,196,6.0,-999.0,40,-99.99,,,0.00,weatherlink.com 1.10,2013-03-28 01:55:00,
2013-03-27 21:10:00,51.0,27.0,30.25,South,187,5.0,-999.0,40,-99.99,,,0.00,weatherlink.com 1.10,2013-03-28 02:10:00,
2013-03-27 21:25:00,50.7,28.0,30.26,South,176,1.0,-999.0,41,-99.99,,,0.00,weatherlink.com 1.10,2013-03-28 02:25:00,
2013-03-27 21:40:00,50.1,28.0,30.27,South,179,2.0,-999.0,43,-99.99,,,0.00,weatherlink.com 1.10,2013-03-28 02:40:00,
2013-03-27 21:55:00,48.7,30.0,30.27,South,178,0.0,-999.0,48,-99.99,,,0.00,weatherlink.com 1.10,2013-03-28 02:55:00,
2013-03-27 22:10:00,47.3,31.0,30.28,South,173,0.0,-999.0,54,-99.99,,,0.00,weatherlink.com 1.10,2013-03-28 03:10:00,
2013-03-27 22:25:00,46.7,32.0,30.28,South,172,4.0,-999.0,56,-99.99,,,0.00,weatherlink.com 1.10,2013-03-28 03:25:00,
2013-03-27 22:40:00,46.3,32.0,30.28,South,171,0.0,-999.0,58,-99.99,,,0.00,weatherlink.com 1.10,2013-03-28 03:40:00,
2013-03-27 22:55:00,45.9,33.0,30.29,South,172,2.0,-999.0,60,-99.99,,,0.00,weatherlink.com 1.10,2013-03-28 03:55:00,
2013-03-27 23:10:00,45.9,33.0,30.29,South,170,5.0,-999.0,61,-99.99,,,0.00,weatherlink.com 1.10,2013-03-28 04:10:00,
2013-03-27 23:25:00,45.6,33.0,30.29,South,174,1.0,-999.0,61,-99.99,,,0.00,weatherlink.com 1.10,2013-03-28 04:25:00,
2013-03-27 23:40:00,45.3,33.0,30.29,South,174,7.0,-999.0,62,-99.99,,,0.00,weatherlink.com 1.10,2013-03-28 04:40:00,
2013-03-27 23:55:00,45.1,33.0,30.29,SSE,167,5.0,-999.0,64,-99.99,,,0.00,weatherlink.com 1.10,2013-03-28 04:55:00,